Stations météo

réclame
Mon MeteoGroup
Torpshammar, Suède (2343): Température de l'air & dewpoint: 08.08.2018 15:00:00 - 14.08.2018 15:00:00 (CEST)Torpshammar, Suède (2343): Vitesse du vent & gusts: 08.08.2018 15:00:00 - 14.08.2018 15:00:00 (CEST)Torpshammar, Suède (2343): Direction du vent: 08.08.2018 15:00:00 - 14.08.2018 15:00:00 (CEST)Torpshammar, Suède (2343): reduced air pressure: 08.08.2018 15:00:00 - 14.08.2018 15:00:00 (CEST)Torpshammar, Suède (2343): visibility: 08.08.2018 15:00:00 - 14.08.2018 15:00:00 (CEST)Torpshammar, Suède (2343): Quantités de précipitations: 08.08.2018 15:00:00 - 14.08.2018 15:00:00 (CEST)
Date & Time tt [°C] td [°C] ff [km/h] ff [knt] fx [km/h] fx [knt] dd ppp [hPa] vv [km] rr [mm]
14.08.2018 15:00:00 18,8 7,9 3 2 10 6 SSW 1009,2 43 0,0
14.08.2018 14:00:00 17,2 7,0 3 2 16 8 SSW 1009,6 48 0,0
14.08.2018 13:00:00 16,9 7,5 5 3 12 7 W 1009,8 43 0,0
14.08.2018 12:00:00 15,9 6,3 5 3 12 7 WSW 1010,2 50 0,0
14.08.2018 11:00:00 14,7 6,8 4 2 13 7 W 1010,5 49 0,0
14.08.2018 10:00:00 14,0 6,6 5 3 12 6 W 1010,9 50 0,0
14.08.2018 09:00:00 11,7 6,8 7 4 12 6 W 1011,2 50 0,0
14.08.2018 08:00:00 9,4 7,0 0 0 8 5 N 1011,5 50 0,0
14.08.2018 07:00:00 6,3 6,3 0 0 4 2 N 1011,5 43 0,0
14.08.2018 06:00:00 4,5 4,5 0 0 3 2 N 1011,7 50 0,0
14.08.2018 05:00:00 2,8 2,7 0 0 3 1 N 1011,6 50 0,0
14.08.2018 04:00:00 3,4 3,1 0 0 4 2 N 1011,5 50 0,0
14.08.2018 03:00:00 3,7 3,4 0 0 3 2 N 1011,4 50 0,0
14.08.2018 02:00:00 4,5 3,9 0 0 8 4 N 1011,1 50 0,0
14.08.2018 01:00:00 5,1 4,5 0 0 4 2 N 1010,7 50 0,0
14.08.2018 00:00:00 6,1 5,2 0 0 2 1 N 1010,3 50 0,0
13.08.2018 23:00:00 7,4 5,9 0 0 3 2 N 1010,1 50 0,0
13.08.2018 22:00:00 9,7 6,6 0 0 11 6 N 1009,8 50 0,0
13.08.2018 21:00:00 13,8 6,4 6 3 15 8 WNW 1009,4 50 0,0
13.08.2018 20:00:00 15,4 6,1 7 4 24 13 NNW 1008,7 50 0,0
13.08.2018 19:00:00 16,7 6,5 13 7 27 14 WNW 1008,1 50 0,0
13.08.2018 18:00:00 16,5 6,6 11 6 26 14 WNW 1008,1 50 0,0
13.08.2018 17:00:00 17,4 6,6 14 7 26 14 WNW 1008,0 50 0,0
13.08.2018 16:00:00 17,8 6,9 13 7 28 15 W 1007,8 45 0,0
13.08.2018 15:00:00 16,7 6,2 18 10 31 17 WNW 1007,7 50 0,0
13.08.2018 14:00:00 16,6 7,3 14 7 28 15 W 1007,6 50 0,0
13.08.2018 13:00:00 16,8 6,3 16 9 38 20 WNW 1007,3 41 0,0
13.08.2018 12:00:00 15,2 5,1 13 7 37 20 NW 1007,3 47 0,0
13.08.2018 11:00:00 14,9 5,9 14 7 34 18 NW 1007,2 50 0,0
13.08.2018 10:00:00 15,1 6,6 15 8 34 19 NW 1006,8 43 0,0
13.08.2018 09:00:00 13,9 7,7 12 6 27 15 WNW 1006,5 44 0,0
13.08.2018 08:00:00 12,5 8,2 9 5 22 12 NW 1006,3 50 0,0
13.08.2018 07:00:00 12,0 7,7 11 6 24 13 W 1006,1 50 0,0
13.08.2018 06:00:00 11,2 7,3 8 4 15 8 WNW 1006,2 50 0,0
13.08.2018 05:00:00 9,8 7,2 5 3 16 8 NW 1006,4 50 0,0
13.08.2018 04:00:00 8,6 6,9 3 2 14 8 NNW 1006,3 50 0,0
13.08.2018 03:00:00 10,7 7,0 7 4 18 10 WNW 1006,2 50 0,0
13.08.2018 02:00:00 10,9 7,0 10 5 18 10 WNW 1006,2 50 0,0
13.08.2018 01:00:00 10,8 6,5 6 3 17 9 WNW 1006,3 50 0,0
13.08.2018 00:00:00 11,5 6,8 7 4 19 10 W 1006,3 50 0,0
12.08.2018 23:00:00 11,5 6,4 7 4 15 8 WNW 1006,3 50 0,0
12.08.2018 22:00:00 12,5 6,8 6 3 22 12 NW 1006,2 50 0,0
12.08.2018 21:00:00 14,0 6,6 11 6 23 12 NW 1005,7 50 0,0
12.08.2018 20:00:00 15,3 6,8 10 5 28 15 NNW 1005,4 50 0,0
12.08.2018 19:00:00 16,7 6,2 13 7 31 17 NW 1005,3 50 0,0
12.08.2018 18:00:00 17,3 6,5 14 7 31 17 WNW 1005,2 50 0,0
12.08.2018 17:00:00 17,2 5,5 17 9 29 16 NW 1005,5 50 0,0
12.08.2018 16:00:00 16,4 5,7 14 8 34 18 NW 1005,7 50 0,0
12.08.2018 15:00:00 17,5 5,7 17 9 30 16 WNW 1005,7 50 0,0
12.08.2018 14:00:00 16,2 7,4 12 7 27 14 WNW 1006,2 50 0,0
12.08.2018 13:00:00 16,1 7,3 10 5 29 16 NW 1006,2 47 0,0
12.08.2018 12:00:00 16,5 7,2 9 5 29 16 NW 1006,3 50 0,0
12.08.2018 11:00:00 14,8 7,1 11 6 23 12 NW 1006,9 50 0,0
12.08.2018 10:00:00 14,7 7,7 4 2 14 7 N 1007,3 50 0,0
12.08.2018 09:00:00 12,0 8,3 0 0 7 4 N 1007,9 50 0,0
12.08.2018 08:00:00 11,6 7,7 5 3 11 6 WNW 1008,1 50 0,0
12.08.2018 07:00:00 11,4 8,4 5 3 12 7 NW 1008,5 50 0,0
12.08.2018 06:00:00 11,2 8,6 3 2 8 4 NW 1008,5 50 0,0
12.08.2018 05:00:00 11,3 8,5 3 2 11 6 W 1008,8 50 0,0
12.08.2018 04:00:00 11,3 8,7 4 2 9 5 WNW 1009,1 50 0,0
12.08.2018 03:00:00 11,1 10,2 2 1 5 3 NW 1009,7 50 0,0
12.08.2018 02:00:00 11,1 10,0 0 0 6 4 N 1010,1 47 0,2
12.08.2018 01:00:00 11,5 10,6 0 0 4 2 N 1010,4 50 0,2
12.08.2018 00:00:00 12,3 10,0 0 0 11 6 N 1010,8 50 0,0
11.08.2018 23:00:00 13,6 8,4 4 2 11 6 SSW 1010,8 50 0,0
11.08.2018 22:00:00 13,1 9,2 0 0 5 3 N 1010,7 50 0,0
11.08.2018 21:00:00 14,0 7,7 0 0 5 3 N 1010,6 50 0,0
11.08.2018 20:00:00 18,1 7,8 0 0 12 7 N 1010,5 50 0,0
11.08.2018 19:00:00 19,6 7,0 3 2 15 8 N 1010,2 50 0,0
11.08.2018 18:00:00 20,3 5,9 7 4 20 11 WNW 1010,2 50 0,0
11.08.2018 17:00:00 20,1 7,1 10 6 25 14 NW 1010,6 49 0,0
11.08.2018 16:00:00 20,1 6,4 12 6 26 14 NW 1010,6 50 0,0
11.08.2018 15:00:00 19,8 6,2 12 6 29 16 W 1010,6 46 0,0
11.08.2018 14:00:00 19,3 6,4 14 8 32 17 W 1010,8 39 0,0
11.08.2018 13:00:00 18,7 8,1 7 4 29 16 WSW 1010,5 50 0,0
11.08.2018 12:00:00 17,6 6,5 14 7 32 17 W 1010,1 50 0,0
11.08.2018 11:00:00 17,9 7,3 12 6 33 18 W 1009,4 48 0,0
11.08.2018 10:00:00 17,1 7,4 16 9 40 21 W 1008,8 47 0,0
11.08.2018 09:00:00 16,4 7,3 18 10 45 25 W 1008,0 50 0,0
11.08.2018 08:00:00 15,7 8,0 15 8 38 21 W 1006,3 50 0,0
11.08.2018 07:00:00 15,4 9,1 12 6 34 18 WSW 1005,0 50 0,0
11.08.2018 06:00:00 15,1 9,5 14 7 47 26 W 1003,6 50 0,0
11.08.2018 05:00:00 15,5 9,4 16 9 39 21 W 1002,0 50 0,0
11.08.2018 04:00:00 15,2 7,5 10 5 37 20 SSW 1001,3 50 0,0
11.08.2018 03:00:00 15,9 6,1 10 5 27 15 S 1001,3 50 0,0
11.08.2018 02:00:00 16,2 7,7 9 5 31 17 S 1001,4 50 0,0
11.08.2018 01:00:00 16,6 8,0 9 5 29 16 S 1001,5 50 0,0
11.08.2018 00:00:00 17,3 8,2 9 5 30 16 S 1002,0 50 0,0
10.08.2018 23:00:00 17,2 10,1 7 4 20 11 S 1002,2 50 0,0
10.08.2018 22:00:00 17,5 10,4 10 5 22 12 S 1002,2 50 0,0
10.08.2018 21:00:00 18,1 11,2 8 4 26 14 S 1001,9 50 0,0
10.08.2018 20:00:00 19,7 11,5 8 4 34 18 S 1002,0 50 0,0
10.08.2018 19:00:00 21,7 12,8 16 9 38 21 S 1001,1 43 0,0
10.08.2018 18:00:00 22,6 19,0 5 3 18 10 ESE 1000,6 31 0,0
10.08.2018 17:00:00 22,3 19,1 6 3 16 9 SE 1001,5 31 0,0
10.08.2018 16:00:00 21,3 19,9 4 2 18 10 SE 1002,3 13 0,0
10.08.2018 15:00:00 19,4 19,2 3 2 9 5 ESE 1003,1 5 0,0
10.08.2018 14:00:00 18,7 18,5 3 1 10 6 SSE 1003,7 10 0,0
10.08.2018 13:00:00 17,4 17,2 0 0 8 4 N 1004,8 2,5 6,5
10.08.2018 12:00:00 16,9 16,4 3 2 9 5 SE 1005,2 13 0,2
10.08.2018 11:00:00 15,8 15,3 0 0 7 4 N 1006,7 7 1,2
10.08.2018 10:00:00 16,4 14,6 0 0 4 2 N 1008,3 43 0,0
10.08.2018 09:00:00 15,6 14,1 0 0 6 3 N 1008,6 46 0,0
10.08.2018 08:00:00 15,4 13,9 0 0 3 2 N 1009,5 41 0,0
10.08.2018 07:00:00 14,0 13,7 0 0 6 3 N 1010,4 29 0,0
10.08.2018 06:00:00 11,9 11,9 0 0 2 1 N 1010,5 20 0,0
10.08.2018 05:00:00 10,8 10,6 0 0 4 2 N 1011,2 12 0,0
10.08.2018 04:00:00 10,9 10,7 0 0 3 2 N 1011,6 10 0,0
10.08.2018 03:00:00 11,4 11,1 0 0 4 2 N 1012,0 12 0,0
10.08.2018 02:00:00 12,0 11,5 0 0 4 2 N 1012,0 13 0,0
10.08.2018 01:00:00 12,6 12,0 0 0 3 2 N 1012,2 22 0,0
10.08.2018 00:00:00 13,8 12,5 0 0 5 3 N 1011,7 38 0,0
09.08.2018 23:00:00 15,1 13,5 0 0 6 3 N 1011,4 43 0,0
09.08.2018 22:00:00 16,8 14,4 0 0 5 3 N 1011,1 43 0,0
09.08.2018 21:00:00 19,0 14,3 0 0 13 7 N 1010,8 50 0,0
09.08.2018 20:00:00 24,3 13,2 4 2 17 9 S 1010,6 50 -
09.08.2018 19:00:00 25,5 14,0 6 3 18 10 S 1010,0 47 -
09.08.2018 18:00:00 26,2 14,3 6 3 17 9 S 1009,8 42 -
09.08.2018 17:00:00 25,7 15,4 5 3 15 8 S 1009,7 41 -
09.08.2018 16:00:00 26,9 14,3 4 2 - - WNW 1009,8 41 -
09.08.2018 15:00:00 24,8 17,5 3 2 8 4 NW 1009,6 50 0,0
09.08.2018 14:00:00 24,9 17,6 2 1 10 5 N 1009,7 42 0,0
09.08.2018 13:00:00 23,9 15,1 6 3 21 12 WNW 1009,6 42 0,0
09.08.2018 12:00:00 24,1 16,4 6 3 14 8 WNW 1009,2 43 0,0
09.08.2018 11:00:00 23,5 16,8 4 2 17 9 W 1009,2 39 0,0
09.08.2018 10:00:00 22,7 16,7 9 5 21 11 W 1009,0 37 0,0
09.08.2018 09:00:00 21,9 16,6 7 4 12 7 NW 1008,3 32 0,0
09.08.2018 08:00:00 21,2 17,0 0 0 7 4 N 1008,1 49 0,0
09.08.2018 07:00:00 18,2 17,0 0 0 11 6 N 1007,7 32 0,0
09.08.2018 06:00:00 17,7 16,4 3 2 10 5 SE 1007,3 30 0,0
09.08.2018 05:00:00 16,7 16,2 0 0 14 7 N 1007,0 16 0,0
09.08.2018 04:00:00 16,5 16,2 0 0 8 4 N 1006,8 11 0,0
09.08.2018 03:00:00 17,3 16,7 0 0 8 4 N 1006,6 26 0,0
09.08.2018 02:00:00 17,2 16,9 3 1 8 4 NNE 1006,7 19 0,0
09.08.2018 01:00:00 17,2 16,7 0 0 13 7 N 1007,0 25 0,0
09.08.2018 00:00:00 17,4 17,4 3 1 10 5 ENE 1007,3 16 0,0
08.08.2018 23:00:00 16,8 16,6 0 0 5 3 N 1007,4 4,0 0,0
08.08.2018 22:00:00 17,5 17,2 0 0 15 8 N 1007,3 9 0,2
08.08.2018 21:00:00 19,5 18,3 6 3 17 9 SE 1007,4 10 1,9
08.08.2018 20:00:00 19,8 19,3 0 0 5 3 N 1007,3 6 0,4
08.08.2018 19:00:00 20,8 20,0 0 0 16 9 N 1007,4 19 1,1
08.08.2018 18:00:00 23,4 17,8 5 3 18 10 E 1008,2 35 0,0
08.08.2018 17:00:00 24,3 17,3 4 2 23 12 ESE 1008,2 50 0,0
08.08.2018 16:00:00 24,8 16,5 4 2 20 11 ESE 1008,6 50 0,0
08.08.2018 15:00:00 26,0 15,7 5 3 26 14 SSE 1008,9 50 0,0

tt = Température de l'air
td = dewpoint
ff = Vitesse du vent
fx = gusts
dd = Direction du vent
ppp = reduced air pressure
vv = visibility
rr = Quantités de précipitations

stations d'obs. à proximité